Flag for French Polynesia Weather past 2 weeks in Papeete, Tahiti, French Polynesia

Now
77 °F

Passing clouds.


Feels Like: 79 °F
Forecast: 71 / 80 °F
Wind: 8 mph from South

Location: Tahiti-Faaa

Current Time: Aug 31, 2015 at 8:57:34 PM

Latest Report: Aug 31, 2015 at 8:30 PM


Visibility: N/A

Pressure: 29.98 "Hg

Humidity: 74%

Dew point: 68 °F

Location of PapeeteLocation

Historic Weather in Papeete — Graph

°F

Papeete temperature yesterday

Maximum temperature yesterday: 88 °F (at 1:30 PM)
Minimum temperature yesterday: 75 °F (at 3:00 AM)
Average temperature yesterday: 80 °F

Past Weeks' High & Low Weather Summary

 TemperatureHumidityPressure
High88 °F (Aug 30, 1:30 PM)100% (Aug 18, 10:30 PM)30.04 "Hg (Aug 18, 10:30 PM)
Low70 °F (Aug 25, 6:00 AM)54% (Aug 20, 11:30 AM)29.80 "Hg (Aug 28, 4:00 PM)
Average78 °F77%29.93 "Hg
* Reported Aug 16 8:00 PM — Aug 31 8:00 PM, Papeete, Weather by CustomWeather, © 2015

Note: Actual official high and low records may vary slightly from our data, if they occured in-between our weather recording intervals... More about our weather records

Advertising

Papeete weather history for previous 24 hours

 ConditionsComfort  
Time TempWeatherWind HumidityBarometerVisibility
8:00 PM
Mon, Aug 31
77 °FPassing clouds.12 mph74%29.98 "HgN/A
7:30 PM77 °FPassing clouds.7 mph79%29.98 "HgN/A
7:00 PM77 °FPassing clouds.10 mph74%29.98 "HgN/A
5:30 PM77 °FScattered showers. Scattered clouds.21 mph79%29.95 "HgN/A
5:00 PM79 °FScattered showers. Scattered clouds.18 mph74%29.95 "HgN/A
4:30 PM79 °FScattered showers. Scattered clouds.20 mph74%29.92 "HgN/A
4:00 PM79 °FScattered showers. Scattered clouds.21 mph74%29.92 "HgN/A
3:30 PM79 °FScattered showers. Scattered clouds.20 mph74%29.92 "HgN/A
3:00 PM79 °FScattered showers. Scattered clouds.21 mph74%29.92 "HgN/A
2:30 PM79 °FScattered clouds.22 mph74%29.92 "HgN/A
2:00 PM79 °FScattered clouds.23 mph74%29.95 "HgN/A
1:30 PM79 °FScattered clouds.24 mph79%29.95 "HgN/A
1:00 PM79 °FScattered clouds.22 mph79%29.95 "HgN/A
11:30 AM81 °FScattered showers. Scattered clouds.22 mph70%29.98 "HgN/A
11:00 AM81 °FScattered showers. Scattered clouds.20 mph74%29.98 "HgN/A
10:30 AM79 °FScattered showers. Scattered clouds.23 mph79%30.01 "HgN/A
10:00 AM79 °FScattered showers. Scattered clouds.22 mph79%30.01 "HgN/A
9:30 AM79 °FScattered showers. Scattered clouds.20 mph79%30.01 "HgN/A
9:00 AM81 °FScattered showers. Scattered clouds.12 mph74%30.01 "HgN/A
8:30 AM81 °FScattered showers. Scattered clouds.3 mph79%30.01 "HgN/A
8:00 AM81 °FScattered showers. Scattered clouds.5 mph74%29.98 "HgN/A
7:30 AM79 °FScattered showers. Scattered clouds.1 mph74%29.98 "HgN/A
7:00 AM75 °FScattered showers. Scattered clouds.5 mph83%29.98 "HgN/A
6:30 AM75 °FScattered showers. Scattered clouds.1 mph83%29.95 "HgN/A
6:00 AM75 °FScattered showers. Passing clouds.3 mph83%29.95 "HgN/A
5:30 AM75 °FPassing clouds.8 mph83%29.95 "HgN/A
5:00 AM75 °FOvercast.10 mph83%29.92 "HgN/A
4:30 AM75 °FPartly cloudy.13 mph83%29.92 "HgN/A
4:00 AM75 °FPartly cloudy.10 mph83%29.92 "HgN/A
3:30 AM75 °FMostly cloudy.16 mph89%29.92 "HgN/A
3:00 AM73 °FScattered showers. Passing clouds.16 mph94%29.92 "HgN/A
2:30 AM75 °FScattered showers. Passing clouds.18 mph89%29.92 "HgN/A
2:00 AM75 °FScattered showers. Partly cloudy.16 mph89%29.92 "HgN/A
1:30 AM77 °FPartly cloudy.12 mph83%29.92 "HgN/A
1:00 AM77 °FPartly cloudy.13 mph83%29.92 "HgN/A
12:30 AM77 °FPartly cloudy.9 mph83%29.95 "HgN/A
12:00 AM77 °FPartly cloudy.8 mph83%29.95 "HgN/A
11:30 PM
Sun, Aug 30
77 °FScattered showers. Partly cloudy.8 mph89%29.95 "HgN/A
11:00 PM77 °FLight rain. Partly cloudy.2 mph89%29.95 "HgN/A
10:30 PM77 °FScattered showers. Passing clouds.3 mph89%29.95 "HgN/A
10:00 PM79 °FScattered showers. Passing clouds.9 mph84%29.95 "HgN/A
9:30 PM79 °FScattered showers. Passing clouds.8 mph84%29.95 "HgN/A
9:00 PM79 °FPassing clouds.10 mph84%29.95 "HgN/A
8:30 PM79 °FPassing clouds.10 mph84%29.95 "HgN/A
8:00 PM79 °FPassing clouds.10 mph84%29.95 "HgN/A
Weather by CustomWeather, © 2015

See weather overviewHow to use our weather pages